HC6AC-16 Weather Reports


time (UTC)temp
F
wind
direction
speed
knots
gust
knots
rain 1hr
in
rain 24hr
in
rain mn
in
humidity
%
barometer
mb
20260507085827 52 117 0.9 1.7 0.00 0.00 0.00 98 1020.0
20260507084827 60 117 0.9 1.7 0.00 0.00 0.00 97 1020.0
20260507083826 60 122 0.9 2.6 0.00 0.00 0.00 97 1020.0
20260507082825 57 122 0.9 2.6 0.00 0.00 0.00 97 1020.0
20260507081824 54 122 1.7 2.6 0.00 0.00 0.00 97 1020.0
20260507080824 58 122 1.7 2.6 0.00 0.00 0.00 97 1020.0
20260507075823 59 122 0.9 2.6 0.00 0.00 0.00 97 1020.0
20260507074823 56 122 1.7 2.6 0.00 0.00 0.00 97 1020.0
20260507073822 59 124 0.9 2.6 0.00 0.00 0.00 98 1020.0
20260507072821 56 124 0.9 2.6 0.01 0.00 0.00 98 1020.0
20260507071820 53 124 0.9 2.6 0.00 0.00 0.00 98 1020.0
20260507070820 50 124 1.7 2.6 0.01 0.00 0.00 98 1020.0
20260507065819 59 124 0.9 2.6 0.01 0.00 0.00 98 1020.0
20260507064818 57 124 0.9 2.6 0.00 0.00 0.00 98 1020.0
20260507063818 55 124 1.7 2.6 0.01 0.00 0.00 98 1020.0
20260507062817 61 136 2.6 4.3 0.00 0.00 0.00 98 1021.0
20260507061816 58 136 2.6 4.3 0.00 0.00 0.00 98 1021.0
20260507060816 55 136 2.6 4.3 0.00 0.00 0.00 98 1021.0
20260507055815 52 136 2.6 4.3 0.00 0.00 0.00 98 1021.0
20260507054814 59 135 2.6 3.5 0.00 0.00 0.00 97 1021.0
20260507053813 56 135 2.6 3.5 0.00 0.00 0.00 97 1021.0
20260507052812 53 135 2.6 3.5 0.00 0.00 0.00 97 1022.0
20260507051812 50 135 2.6 3.5 0.00 0.00 0.00 97 1022.0
20260507050811 60 135 2.6 3.5 0.00 0.00 0.00 97 1022.0
20260507045810 57 135 2.6 3.5 0.00 0.00 0.00 97 1022.0
20260507044809 54 135 2.6 3.5 0.00 0.00 0.00 97 1022.0
20260507043809 51 135 2.6 3.5 0.00 0.00 0.00 97 1022.0
20260507042808 61 121 0.9 0.9 0.00 0.00 0.00 96 1022.0
20260507041807 58 121 0.9 0.9 0.00 0.00 0.00 96 1022.0
20260507040806 55 121 0.9 1.7 0.00 0.00 0.00 96 1022.0
20260507035806 59 121 0.9 0.9 0.00 0.00 0.00 96 1022.0
20260507034805 56 121 0.9 1.7 0.00 0.00 0.00 96 1022.0